Location: Holmbach
(49.5093°N, 8.8411°E)
Time: 20:43:46
(UTC+00:00)

Cosmos 1269 Rocket - Pass Details

Date: 17 June 2025
Orbit: 768 x 776 km, 74.1° (Epoch: 16 July)

Event Time Altitude Azimuth Distance (km) Brightness Sun altitude
Exits shadow 21:12:17 - 199° (SSW) 3,075 6.7 -11.3°
Reaches altitude 10° 21:14:15 10° 198° (SSW) 2,310 6.1 -11.4°
Maximum altitude 21:19:30 83° 111° (ESE) 785 4.0 -11.9°
Drops below altitude 10° 21:24:48 10° 25° (NNE) 2,332 7.0 -12.3°
Sets 21:27:12 0° 25° (NNE) 3,264 7.8 -12.5°
